Погода в Теряеве

Россия / Московская область     56°10′19″N   36°07′38″E
темп.,
°C
ветер,
м/с
пор.,
м/с
влажн.,
%
обл.,
%
осадки,
мм/ч
давл.,
гПа
погр.,
м
18 сентября, сб
сб1800:00+5всв277551 0.0 1023218
03:00+2всв3591100 0.0 1024106
06:00+2всв268995 0.0 1024121
09:00+6в496396 0.0 1024501
12:00+10в5748100 0.0 10241337
15:00+11в5647100 0.0 10221440
18:00+9всв4960100 0.0 1022519
21:00+6в51268100 0.0 1023494
19 сентября, вс
вс1900:00+5в51270100 0.0 1023536
03:00+5в51272100 0.0 1022561
06:00+5в61371100 0.0 1022613
09:00+6в61367100 0.0 1022787
12:00+8в71260100 0.0 10221015
15:00+8в61163100 0.3 10211052
18:00+7в61164100 0.4 10201055
21:00+7в61260100 0.5 10201066
20 сентября, пн
пн2000:00+6всв61361100 0.0 1019934
03:00+5всв61364100 0.1 1019987
06:00+3всв71694100 1.7 1019880
09:00+3всв71597100 2.6 1019803
12:00+3всв71597100 0.5 1019813
15:00+3всв71497100 0.6 1019962
18:00+3всв71497100 0.1 1018950
21:00+3всв61397100 0.4 1018903
21 сентября, вт
вт2100:00+4всв61497100 1.1 1016795
03:00+4всв61396100 2.6 1015769
06:00+4всв61397100 2.8 1014788
09:00+4всв61295100 5.2 1013754
12:00+4св51196100 3.4 1013694
15:00+4св41097100 3.9 1013600
18:00+4ссв4997100 2.0 1013548
21:00+4ссв4797100 6.6 1013665
22 сентября, ср
ср2200:00+4ссв3898100 2.2 1012461
03:00+4с3798100 3.1 1012411
06:00+5с3798100 0.3 1012425
09:00+5с4898100 0.9 1012437
12:00+5с3697100 0.8 1012500
15:00+5с3597100 1.1 1011547
18:00+5ссв2698100 0.2 1012447
21:00+5ссв2599100 0.3 1011325